Torna al catalogo

FENGYUN 1C DEB

AttivoSSO
NORAD 30327·DEBRIS·🇨🇳 China

Lanciato May 10, 1999 da Taiyuan Satellite Launch Center

Loading…

Prossimi Passaggi (prossime 24 ore)

TLE

AggiornatoSource: Space-Track

Epoca: Sep 14, 2026, 03:59 UTC

1 30327U 99025AAN 26257.16641363  .00002542  00000-0  11343-2 0  9999
2 30327  98.4271 143.4129 0117815  64.1351  86.8587 14.19911586  3498

Traccia FENGYUN 1C DEB in tempo reale con AllMySat

Download on the App Store